Location: *
(48.7358°N, 0.3111°E)
Time: 07:01:04
(UTC+00:00)

CZ-2C R/B - Pass Details

Date: 22 October 2019
Orbit: 668 x 784 km, 98.1° (Epoch: 12 November)

Event Time Altitude Azimuth Distance (km) Brightness Sun altitude
Rises 05:54:47 0° 4° (N) 3,286 5.7 -6.3°
Reaches altitude 10° 05:57:33 10° 350° (N) 2,353 4.8 -5.9°
Maximum altitude 06:01:29 22° 300° (WNW) 1,644 3.7 -5.3°
Drops below altitude 10° 06:05:23 10° 251° (WSW) 2,323 4.5 -4.6°
Sets 06:08:07 0° 237° (WSW) 3,233 5.3 -4.2°
